STARLINK-1816 (46714 NORAD) Tracking and Keplerian Element Data

This shows tracking and keplerian element data for the satellite.

Feedback or suggestion? Click here.




ElementValue
Catalog46714
NameSTARLINK-1816
Epoch Orbit656
Epoch Day331.16668981
Epoch Year2020
RAAN279.1214
Inclination53.0555
Eccentricity0.0001122
Argument of Perigee78.038
Mean Anonmoly33.0894
Mean Motion15.62787691
Decay Rate-0.00076554
L11 46714U 20073AW 20331.16668981 -.00076554 00000-0 -83701-3 0 9999
L22 46714 53.0555 279.1214 0001122 78.0380 33.0894 15.62787691 6561

Live tracking and technical data element details for STARLINK-1816 (NORAD 46714). STARLINK-1816 can be tracked NOW for your location showing map with azimuth and elevation plus other details from your city location.

Track the satellite on the map from your city or location and see movement details for azimuth, elevation, latitude, longitude, range, height, and movement on the map or in text.







IsCatalogInMostPopularTable: catalog: 46714, numindb: 8
Update: records affected: 1



GetName: 46714 STARLINK-1816

Hit Count: updated at: Fri, 27 Nov 2020 00:25:54 GMT